| time (UTC) | temp F | wind direction | speed MPH | gust MPH | rain 1hr in | rain 24hr in | rain mn in | humidity % | barometer mb |
| 20260510091529 | 67 | 180 | 1.0 | 2.0 | 0.00 | 0.10 | 0.00 | 96 | 1004.2 |
| 20260510090627 | 67 | 180 | 2.0 | 5.0 | 0.00 | 0.10 | 0.00 | 96 | 1004.2 |
| 20260510085631 | 67 | 135 | 0.0 | 0.0 | 0.00 | 0.10 | 0.00 | 97 | 1004.5 |
| 20260510084627 | 67 | 157 | 0.0 | 1.0 | 0.00 | 0.10 | 0.00 | 97 | 1004.5 |
| 20260510083629 | 67 | 157 | 0.0 | 0.0 | 0.00 | 0.10 | 0.00 | 97 | 1004.5 |
| 20260510082727 | 67 | 157 | 0.0 | 0.0 | 0.00 | 0.10 | 0.00 | 97 | 1004.5 |
| 20260510080826 | 68 | 157 | 0.0 | 0.0 | 0.00 | 0.10 | 0.00 | 96 | 1004.9 |
| 20260510075827 | 68 | 157 | 0.0 | 0.0 | 0.00 | 0.10 | 0.00 | 96 | 1004.2 |
| 20260510074829 | 69 | 180 | 0.0 | 0.0 | 0.00 | 0.10 | 0.00 | 95 | 1004.5 |
| 20260510073827 | 68 | 180 | 0.0 | 0.0 | 0.00 | 0.10 | 0.00 | 93 | 1004.2 |
| 20260510072828 | 69 | 180 | 0.0 | 2.0 | 0.00 | 0.10 | 0.00 | 93 | 1004.2 |
| 20260510071828 | 69 | 180 | 2.0 | 3.0 | 0.00 | 0.10 | 0.00 | 92 | 1004.2 |
| 20260510070828 | 69 | 157 | 0.0 | 0.0 | 0.00 | 0.10 | 0.00 | 91 | 1004.5 |
| 20260510065927 | 69 | 180 | 0.0 | 0.0 | 0.00 | 0.10 | 0.00 | 92 | 1004.2 |
| 20260510065828 | 69 | 180 | 0.0 | 0.0 | 0.00 | 0.10 | 0.00 | 92 | 1004.2 |
| 20260510064828 | 70 | 180 | 0.0 | 0.0 | 0.00 | 0.10 | 0.00 | 92 | 1004.2 |
| 20260510063927 | 70 | 180 | 0.0 | 0.0 | 0.00 | 0.10 | 0.00 | 91 | 1004.2 |
| 20260510062929 | 70 | 180 | 0.0 | 0.0 | 0.00 | 0.10 | 0.00 | 91 | 1004.2 |
| 20260510061929 | 70 | 180 | 0.0 | 0.0 | 0.00 | 0.10 | 0.00 | 90 | 1004.2 |
| 20260510060928 | 70 | 157 | 0.0 | 0.0 | 0.00 | 0.10 | 0.00 | 89 | 1004.2 |
| 20260510055929 | 71 | 157 | 0.0 | 0.0 | 0.00 | 0.10 | 0.00 | 89 | 1003.8 |
| 20260510054929 | 71 | 157 | 1.0 | 2.0 | 0.00 | 0.10 | 0.00 | 90 | 1003.8 |
| 20260510053929 | 70 | 157 | 0.0 | 0.0 | 0.00 | 0.10 | 0.00 | 91 | 1004.2 |
| 20260510053027 | 71 | 157 | 0.0 | 0.0 | 0.00 | 0.10 | 0.00 | 94 | 1004.2 |
| 20260510051027 | 71 | 157 | 0.0 | 0.0 | 0.00 | 0.10 | 0.00 | 93 | 1004.2 |
| 20260510050127 | 71 | 157 | 0.0 | 0.0 | 0.00 | 0.10 | 0.00 | 92 | 1003.8 |
| 20260510045109 | 72 | 157 | 0.0 | 0.0 | 0.00 | 0.10 | 0.10 | 92 | 1003.5 |
| 20260510044106 | 72 | 157 | 0.0 | 0.0 | 0.00 | 0.10 | 0.10 | 91 | 1003.5 |
| 20260510043106 | 73 | 157 | 0.0 | 0.0 | 0.00 | 0.10 | 0.10 | 91 | 1003.8 |
| 20260510042107 | 73 | 157 | 0.0 | 0.0 | 0.00 | 0.10 | 0.10 | 91 | 1003.5 |
| 20260510041106 | 73 | 157 | 0.0 | 0.0 | 0.00 | 0.10 | 0.10 | 92 | 1003.2 |
| 20260510040109 | 73 | 157 | 0.0 | 0.0 | 0.00 | 0.10 | 0.10 | 92 | 1003.2 |
| 20260510035205 | 73 | 157 | 0.0 | 0.0 | 0.00 | 0.10 | 0.10 | 91 | 1003.2 |
| 20260510034206 | 73 | 157 | 0.0 | 0.0 | 0.00 | 0.10 | 0.10 | 92 | 1003.2 |
| 20260510033208 | 73 | 157 | 0.0 | 0.0 | 0.00 | 0.10 | 0.10 | 91 | 1003.2 |
| 20260510032208 | 74 | 157 | 0.0 | 0.0 | 0.00 | 0.10 | 0.10 | 90 | 1002.8 |
| 20260510031208 | 74 | 157 | 0.0 | 0.0 | 0.00 | 0.10 | 0.10 | 87 | 1002.8 |
| 20260510025207 | 76 | 157 | 0.0 | 0.0 | 0.00 | 0.10 | 0.10 | 87 | 1002.4 |
| 20260510024208 | 76 | 157 | 0.0 | 0.0 | 0.00 | 0.10 | 0.10 | 87 | 1002.1 |
| 20260510023307 | 76 | 135 | 0.0 | 0.0 | 0.00 | 0.10 | 0.10 | 85 | 1002.1 |
| 20260510022308 | 77 | 180 | 0.0 | 0.0 | 0.00 | 0.10 | 0.10 | 85 | 1002.1 |
| 20260510021407 | 77 | 180 | 0.0 | 0.0 | 0.00 | 0.10 | 0.10 | 83 | 1002.1 |
| 20260510020408 | 78 | 180 | 0.0 | 2.0 | 0.00 | 0.10 | 0.10 | 83 | 1001.7 |
| 20260510014407 | 79 | 180 | 1.0 | 4.0 | 0.00 | 0.10 | 0.10 | 79 | 1001.4 |
| 20260510013408 | 79 | 135 | 0.0 | 0.0 | 0.00 | 0.10 | 0.10 | 76 | 1001.4 |
| 20260510012507 | 80 | 135 | 0.0 | 0.0 | 0.00 | 0.10 | 0.10 | 72 | 1001.4 |
| 20260510011510 | 81 | 135 | 0.0 | 0.0 | 0.00 | 0.10 | 0.10 | 70 | 1001.1 |
| 20260510010508 | 81 | 135 | 0.0 | 0.0 | 0.00 | 0.10 | 0.10 | 69 | 1000.7 |
| 20260510005507 | 82 | 135 | 0.0 | 0.0 | 0.00 | 0.10 | 0.10 | 68 | 1000.7 |
| 20260510003506 | 84 | 135 | 1.0 | 3.0 | 0.00 | 0.10 | 0.10 | 65 | 1000.4 |
| 20260510002510 | 85 | 135 | 1.0 | 4.0 | 0.00 | 0.10 | 0.10 | 64 | 1000.0 |
| 20260510001607 | 86 | 135 | 0.0 | 0.0 | 0.00 | 0.10 | 0.10 | 63 | 1000.0 |
| 20260509235706 | 87 | 157 | 0.0 | 0.0 | 0.00 | 0.10 | 0.10 | 59 | 999.4 |
| 20260509234708 | 89 | 157 | 0.0 | 0.0 | 0.00 | 0.10 | 0.10 | 58 | 999.4 |
| 20260509232807 | 89 | 167 | 0.0 | 1.0 | 0.00 | 0.10 | 0.10 | 56 | 999.4 |
| 20260509231809 | 88 | 180 | 0.0 | 1.0 | 0.00 | 0.10 | 0.10 | 59 | 999.4 |
| 20260509230906 | 89 | 180 | 0.0 | 1.0 | 0.00 | 0.10 | 0.10 | 55 | 999.4 |
| 20260509223909 | 89 | 270 | 0.0 | 0.0 | 0.00 | 0.10 | 0.10 | 53 | 999.4 |
| 20260509222908 | 89 | 270 | 0.0 | 0.0 | 0.00 | 0.10 | 0.10 | 51 | 999.4 |
| 20260509221907 | 90 | 270 | 0.0 | 0.0 | 0.00 | 0.10 | 0.10 | 50 | 999.0 |
| 20260509220007 | 88 | 180 | 0.0 | 0.0 | 0.00 | 0.10 | 0.10 | 47 | 999.4 |
| 20260509215106 | 87 | 157 | 0.0 | 0.0 | 0.00 | 0.10 | 0.10 | 50 | 999.4 |
| 20260509214105 | 87 | 157 | 0.0 | 1.0 | 0.00 | 0.10 | 0.10 | 50 | 999.7 |
| 20260509213106 | 86 | 157 | 0.0 | 2.0 | 0.00 | 0.10 | 0.10 | 55 | 1000.4 |
| 20260509210108 | 82 | 157 | 0.0 | 0.0 | 0.00 | 0.10 | 0.10 | 64 | 1000.7 |
| 20260509205206 | 81 | 176 | 0.0 | 4.0 | 0.03 | 0.10 | 0.10 | 69 | 1000.4 |
| 20260509204305 | 80 | 180 | 0.0 | 0.0 | 0.10 | 0.10 | 0.10 | 77 | 1000.7 |
| 20260509203308 | 78 | 174 | 1.0 | 5.0 | 0.10 | 0.10 | 0.10 | 77 | 1001.5 |
| 20260509201306 | 70 | 135 | 0.0 | 0.0 | 0.10 | 0.10 | 0.10 | 92 | 1003.2 |
| 20260509200307 | 71 | 148 | 2.0 | 5.0 | 0.10 | 0.10 | 0.10 | 91 | 1003.5 |
| 20260509194305 | 77 | 55 | 3.0 | 5.0 | 0.00 | 0.00 | 0.00 | 68 | 1001.5 |
| 20260509193307 | 85 | 157 | 0.0 | 0.0 | 0.00 | 0.00 | 0.00 | 70 | 1000.5 |
| 20260509192406 | 87 | 286 | 0.0 | 0.0 | 0.00 | 0.00 | 0.00 | 63 | 1000.4 |
| 20260509191407 | 88 | 180 | 0.0 | 0.0 | 0.00 | 0.00 | 0.00 | 63 | 1000.7 |
| 20260509190408 | 88 | 157 | 0.0 | 0.0 | 0.00 | 0.00 | 0.00 | 63 | 1000.7 |
| 20260509185405 | 89 | 289 | 0.0 | 3.0 | 0.00 | 0.00 | 0.00 | 61 | 1000.0 |
| 20260509183506 | 88 | 157 | 0.0 | 0.0 | 0.00 | 0.00 | 0.00 | 62 | 1000.7 |
| 20260509181507 | 85 | 286 | 1.0 | 3.0 | 0.00 | 0.00 | 0.00 | 68 | 1001.4 |
| 20260509180506 | 87 | 252 | 0.0 | 5.0 | 0.00 | 0.00 | 0.00 | 69 | 1001.4 |
| 20260509180405 | 87 | 315 | 0.0 | 0.0 | 0.00 | 0.00 | 0.00 | 68 | 1001.4 |
| 20260509175407 | 86 | 292 | 0.0 | 0.0 | 0.00 | 0.00 | 0.00 | 69 | 1001.4 |
| 20260509174506 | 85 | 302 | 1.0 | 4.0 | 0.00 | 0.00 | 0.00 | 70 | 1002.1 |
| 20260509173508 | 84 | 148 | 0.0 | 2.0 | 0.00 | 0.00 | 0.00 | 72 | 1002.4 |
| 20260509172508 | 84 | 331 | 3.0 | 6.0 | 0.00 | 0.00 | 0.00 | 72 | 1002.8 |
| 20260509170506 | 82 | 337 | 0.0 | 5.0 | 0.00 | 0.00 | 0.00 | 79 | 1002.4 |
| 20260509164505 | 81 | 184 | 0.0 | 2.0 | 0.00 | 0.00 | 0.00 | 86 | 1002.8 |
| 20260509163604 | 80 | 179 | 3.0 | 5.0 | 0.00 | 0.00 | 0.00 | 88 | 1003.2 |
| 20260509162607 | 80 | 176 | 1.0 | 5.0 | 0.00 | 0.00 | 0.00 | 86 | 1002.8 |
| 20260509161706 | 80 | 295 | 1.0 | 4.0 | 0.00 | 0.00 | 0.00 | 88 | 1003.2 |
| 20260509160709 | 78 | 178 | 0.0 | 3.0 | 0.00 | 0.00 | 0.00 | 92 | 1003.2 |
| 20260509154807 | 77 | 162 | 1.0 | 3.0 | 0.00 | 0.00 | 0.00 | 97 | 1003.2 |
| 20260509153906 | 76 | 168 | 2.0 | 5.0 | 0.00 | 0.00 | 0.00 | 98 | 1003.5 |
| 20260509152908 | 75 | 165 | 2.0 | 6.0 | 0.00 | 0.00 | 0.00 | 96 | 1003.5 |
| 20260509152005 | 75 | 164 | 0.0 | 1.0 | 0.00 | 0.00 | 0.00 | 96 | 1003.8 |
| 20260509151005 | 75 | 171 | 1.0 | 4.0 | 0.00 | 0.00 | 0.00 | 91 | 1003.5 |
| 20260509150007 | 74 | 173 | 0.0 | 1.0 | 0.00 | 0.00 | 0.00 | 88 | 1003.5 |
| 20260509145008 | 73 | 173 | 2.0 | 5.0 | 0.00 | 0.00 | 0.00 | 70 | 1003.8 |
| 20260509144105 | 73 | 180 | 0.0 | 0.0 | 0.00 | 0.00 | 0.00 | 65 | 1003.5 |
| 20260509143107 | 72 | 157 | 0.0 | 0.0 | 0.00 | 0.00 | 0.00 | 66 | 1003.5 |
| 20260509142205 | 72 | 173 | 1.0 | 5.0 | 0.00 | 0.00 | 0.00 | 63 | 1003.2 |
| 20260509141207 | 72 | 180 | 0.0 | 1.0 | 0.00 | 0.00 | 0.00 | 60 | 1003.1 |
| 20260509135207 | 72 | 180 | 0.0 | 3.0 | 0.00 | 0.00 | 0.00 | 46 | 1003.5 |
| 20260509134210 | 71 | 22 | 0.0 | 0.0 | 0.00 | 0.00 | 0.00 | 46 | 1003.8 |
| 20260509133305 | 71 | 22 | 0.0 | 2.0 | 0.00 | 0.00 | 0.00 | 46 | 1003.8 |
| 20260509132307 | 71 | 338 | 4.0 | 6.0 | 0.00 | 0.00 | 0.00 | 45 | 1003.8 |
| 20260509131307 | 70 | 22 | 0.0 | 2.0 | 0.00 | 0.00 | 0.00 | 45 | 1003.8 |
| 20260509130305 | 70 | 360 | 0.0 | 0.0 | 0.00 | 0.00 | 0.00 | 46 | 1003.6 |
| 20260509125308 | 70 | 112 | 0.0 | 0.0 | 0.00 | 0.00 | 0.00 | 46 | 1003.5 |
| 20260509124305 | 70 | 112 | 0.0 | 0.0 | 0.00 | 0.00 | 0.00 | 47 | 1003.5 |
| 20260509123306 | 70 | 112 | 0.0 | 0.0 | 0.00 | 0.00 | 0.00 | 48 | 1003.5 |
| 20260509122307 | 70 | 45 | 0.0 | 0.0 | 0.00 | 0.00 | 0.00 | 48 | 1003.5 |
| 20260509121306 | 70 | 45 | 0.0 | 0.0 | 0.00 | 0.00 | 0.00 | 50 | 1003.7 |
| 20260509120405 | 70 | 45 | 0.0 | 0.0 | 0.00 | 0.00 | 0.00 | 48 | 1003.8 |
| 20260509115407 | 70 | 340 | 1.0 | 3.0 | 0.00 | 0.00 | 0.00 | 47 | 1003.8 |
| 20260509114505 | 70 | 337 | 0.0 | 0.0 | 0.00 | 0.00 | 0.00 | 46 | 1003.5 |
| 20260509112505 | 70 | 360 | 0.0 | 2.0 | 0.00 | 0.00 | 0.00 | 48 | 1004.5 |
| 20260509111506 | 70 | 360 | 0.0 | 0.0 | 0.00 | 0.00 | 0.00 | 49 | 1004.2 |
| 20260509110507 | 70 | 22 | 0.0 | 1.0 | 0.00 | 0.00 | 0.00 | 51 | 1004.5 |
| 20260509105506 | 70 | 22 | 0.0 | 0.0 | 0.00 | 0.00 | 0.00 | 52 | 1004.2 |
| 20260509104505 | 70 | 22 | 0.0 | 0.0 | 0.00 | 0.00 | 0.00 | 56 | 1004.9 |
| 20260509103507 | 70 | 22 | 1.0 | 3.0 | 0.00 | 0.00 | 0.00 | 56 | 1004.9 |
| 20260509102507 | 70 | 45 | 0.0 | 1.0 | 0.00 | 0.00 | 0.00 | 58 | 1004.5 |
| 20260509101604 | 70 | 45 | 0.0 | 0.0 | 0.00 | 0.00 | 0.00 | 58 | 1004.2 |
| 20260509100606 | 70 | 45 | 0.0 | 0.0 | 0.00 | 0.00 | 0.00 | 61 | 1003.8 |
| 20260509095605 | 70 | 45 | 0.0 | 0.0 | 0.00 | 0.00 | 0.00 | 62 | 1003.2 |
| 20260509094608 | 70 | 45 | 0.0 | 0.0 | 0.00 | 0.00 | 0.00 | 63 | 1003.5 |
| 20260509093606 | 70 | 45 | 0.0 | 0.0 | 0.00 | 0.00 | 0.00 | 64 | 1003.5 |